Flag for U.S.A. Weather past 2 weeks in Santa Barbara, California, U.S.A.

Now
66 °F

Sunny.


Feels Like: 66 °F
Forecast: 50 / 69 °F
Wind: 7 mph from Southwest

Location: Santa Barbara Municipal Airport

Current Time: Apr 26, 2015 at 10:46:17 AM

Latest Report: Apr 26, 2015 at 9:53 AM


Visibility: 10 mi

Pressure: 30.01 "Hg

Humidity: 43%

Dew point: 43 °F

Location of Santa BarbaraLocation

Historic Weather in Santa Barbara — Graph

°F

Santa Barbara temperature yesterday

Maximum temperature yesterday: 70 °F (at 4:53 PM)
Minimum temperature yesterday: 52 °F (at 3:53 AM)
Average temperature yesterday: 60 °F

Past Weeks' High & Low Weather Summary

 TemperatureHumidityPressure
High76 °F (Apr 16, 11:53 AM)97% (Apr 19, 5:53 AM)30.11 "Hg (Apr 19, 5:53 AM)
Low45 °F (Apr 16, 5:53 AM)15% (Apr 14, 8:53 PM)29.83 "Hg (Apr 20, 6:53 PM)
Average60 °F67%29.95 "Hg
* Reported Apr 11 9:53 AM — Apr 26 9:53 AM, Santa Barbara, Weather by CustomWeather, © 2015

Note: Actual official high and low records may vary slightly from our data, if they occured in-between our weather recording intervals... More about our weather records

Advertising

Santa Barbara weather history for previous 24 hours

 ConditionsComfort  
Time TempWeatherWind HumidityBarometerVisibility
9:53 AM
Sun, Apr 26
66 °FSunny.7 mph43%30.01 "Hg10 mi
8:53 AM63 °FSunny.10 mph48%30.01 "Hg10 mi
7:53 AM59 °FSunny.7 mph58%30.00 "Hg10 mi
6:53 AM53 °FClear.No wind72%29.98 "Hg10 mi
5:53 AM52 °FClear.5 mph75%29.97 "Hg10 mi
4:53 AM53 °FClear.3 mph72%29.95 "Hg10 mi
3:53 AM54 °FClear.7 mph69%29.95 "Hg10 mi
2:53 AM54 °FClear.6 mph69%29.94 "Hg10 mi
1:53 AM55 °FClear.9 mph67%29.94 "Hg10 mi
12:53 AM57 °FClear.10 mph62%29.94 "Hg10 mi
11:53 PM
Sat, Apr 25
56 °FClear.12 mph65%29.94 "Hg10 mi
10:53 PM55 °FClear.8 mph69%29.95 "Hg10 mi
9:53 PM56 °FClear.9 mph67%29.94 "Hg10 mi
8:53 PM58 °FClear.15 mph62%29.93 "Hg10 mi
7:53 PM61 °FSunny.23 mph52%29.90 "Hg10 mi
6:53 PM64 °FScattered clouds.23 mph47%29.89 "Hg10 mi
5:53 PM67 °FScattered clouds.23 mph45%29.88 "Hg10 mi
4:53 PM70 °FScattered clouds.21 mph44%29.88 "Hg10 mi
3:53 PM67 °FScattered clouds.15 mph55%29.90 "Hg10 mi
2:53 PM69 °FBroken clouds.20 mph53%29.91 "Hg10 mi
1:53 PM63 °FBroken clouds.18 mph75%29.93 "Hg10 mi
12:53 PM63 °FMostly cloudy.17 mph81%29.94 "Hg10 mi
11:53 AM60 °FLight rain. Fog.14 mph93%29.97 "Hg3 mi
10:53 AM61 °FCloudy.16 mph81%29.98 "Hg10 mi
Weather by CustomWeather, © 2015

See weather overviewHow to use our weather pages